Location: Home
(42.5358°N, 72.7383°W)
Time: 21:12:36
(UTC-05:00)

A-11 Canister half - Pass Details

Date: 05 December 2021
Orbit: 1516 x 1684 km, 47.2° (Epoch: 18 January)

Event Time Altitude Azimuth Distance (km) Brightness Sun altitude
Rises 03:41:26 0° 175° (S) 4,698 11.6 -36.8°
Reaches altitude 10° 03:46:15 10° 154° (SSE) 3,750 11.2 -35.9°
Maximum altitude 03:51:03 15° 122° (ESE) 3,397 11.3 -35.0°
Drops below altitude 10° 03:55:53 10° 92° (E) 3,827 11.9 -34.1°
Sets 04:00:51 0° 71° (ENE) 4,853 12.6 -33.2°
